Weather History for Anaktuvuk Pass, AK

Change the Weather History Date:

Tuesday, February 14, 2012

  Actual Average Record
Temperature  
Mean Temperature 12 °F -  
Max Temperature 17 °F -1 °F 30 °F (2006)
Min Temperature 6 °F -12 °F -34 °F (2003)
Degree Days  
Heating Degree Days 54    
Moisture  
Dew Point 10 °F    
Average Humidity 83    
Maximum Humidity 93    
Minimum Humidity 72    
Precipitation  
Precipitation 0.00 in - - ()
Sea Level Pressure  
Sea Level Pressure 29.42 in    
Wind  
Wind Speed 6 mph (SSW)    
Max Wind Speed 16 mph    
Max Gust Speed 18 mph    
Visibility 10 miles    
Events      
Averages and records for this station are not official NWS values.
T = Trace of Precipitation, MM = Missing Value Source: NWS Daily Summary

Daily Weather History Graph

Daily Weather History Graph

Search for Another Location

Airport:

Trip Planner

Search our weather history database for the weather conditions in past years. The results will help you decide how hot, cold, wet, or windy it might be!

Date:

Astronomy

Feb. 14, 2012 Rise Set
Actual Time 9:30 AM AKST 5:12 PM AKST
Civil Twilight 8:28 AM AKST 6:15 PM AKST
Nautical Twilight 7:22 AM AKST 7:21 PM AKST
Astronomical Twilight 6:17 AM AKST 8:26 PM AKST
Moon 5:25 AM AKST (2/14) 8:23 AM AKST (2/14)
Length of Visible Light 9h 46m
Length of Day
7h 41m
Waning Gibbous, 48% of the Moon is Illuminated
Feb 14
Waning Gibbous
Feb 21
New
Feb 29
First Quarter
Mar 8
Full
Mar 14
Last Quarter

Hourly Weather History & Observations

Time (AKST) Temp. Windchill Dew Point Humidity Pressure Visibility Wind Dir Wind Speed Gust Speed Precip Events Conditions
12:16 AM 12.2 °F 4.3 °F 8.6 °F 85% 29.37 in 10.0 mi SSW 4.6 mph - N/A   Overcast
12:36 AM 12.2 °F 1.7 °F 6.8 °F 79% 29.36 in 10.0 mi SSW 6.9 mph - N/A   Overcast
12:56 AM 12.2 °F 6.1 °F 8.6 °F 85% 29.36 in 10.0 mi SW 3.5 mph - N/A   Overcast
1:16 AM 10.4 °F - 6.8 °F 85% 29.37 in 10.0 mi Calm Calm - N/A   Overcast
1:36 AM 12.2 °F 2.9 °F 8.6 °F 85% 29.37 in 10.0 mi South 5.8 mph - N/A   Overcast
1:56 AM 12.2 °F 4.3 °F 8.6 °F 85% 29.37 in 10.0 mi SSW 4.6 mph - N/A   Overcast
2:16 AM 12.2 °F 4.3 °F 8.6 °F 85% 29.37 in 10.0 mi SSW 4.6 mph - N/A   Overcast
2:36 AM 12.2 °F 2.9 °F 8.6 °F 85% 29.37 in 10.0 mi South 5.8 mph - N/A   Overcast
2:56 AM 12.2 °F 4.3 °F 8.6 °F 85% 29.37 in 10.0 mi South 4.6 mph - N/A   Overcast
3:16 AM 12.2 °F 1.7 °F 6.8 °F 79% 29.37 in 10.0 mi South 6.9 mph - N/A   Overcast
3:36 AM 10.4 °F 0.8 °F 6.8 °F 85% 29.38 in 10.0 mi SSW 5.8 mph - N/A   Scattered Clouds
3:56 AM 8.6 °F -2.6 °F 6.8 °F 92% 29.38 in 10.0 mi South 6.9 mph - N/A   Mostly Cloudy
4:16 AM 10.4 °F 2.2 °F 6.8 °F 85% 29.38 in 10.0 mi SSW 4.6 mph - N/A   Overcast
4:36 AM 10.4 °F 0.8 °F 6.8 °F 85% 29.38 in 10.0 mi SSW 5.8 mph - N/A   Overcast
4:56 AM 10.4 °F 0.8 °F 5.0 °F 79% 29.37 in 10.0 mi South 5.8 mph - N/A   Mostly Cloudy
5:16 AM 10.4 °F - 5.0 °F 79% 29.37 in 10.0 mi Calm Calm - N/A   Mostly Cloudy
5:36 AM 8.6 °F - 3.2 °F 79% 29.36 in 10.0 mi Calm Calm - N/A   Overcast
5:56 AM 8.6 °F - 5.0 °F 85% 29.37 in 10.0 mi Calm Calm - N/A   Scattered Clouds
6:16 AM 8.6 °F - 3.2 °F 79% 29.37 in 10.0 mi Calm Calm - N/A   Clear
6:36 AM 8.6 °F 2.0 °F 3.2 °F 79% 29.37 in 10.0 mi SSW 3.5 mph - N/A   Scattered Clouds
6:56 AM 6.8 °F - -0.4 °F 72% 29.37 in 10.0 mi Calm Calm - N/A   Mostly Cloudy
7:16 AM 6.8 °F -0.1 °F 3.2 °F 85% 29.37 in 10.0 mi South 3.5 mph - N/A   Mostly Cloudy
7:36 AM 10.4 °F 2.2 °F 6.8 °F 85% 29.37 in 10.0 mi South 4.6 mph - N/A   Partly Cloudy
7:56 AM 12.2 °F 4.3 °F 8.6 °F 85% 29.38 in 10.0 mi SSW 4.6 mph - N/A   Partly Cloudy
8:16 AM 15.8 °F 5.1 °F 10.4 °F 79% 29.38 in 10.0 mi South 8.1 mph - N/A   Partly Cloudy
8:36 AM 17.6 °F 5.0 °F 12.2 °F 79% 29.38 in 7.0 mi South 11.5 mph 16.1 mph N/A   Clear
8:56 AM 17.6 °F 3.7 °F 15.8 °F 93% 29.39 in 10.0 mi South 13.8 mph 18.4 mph N/A   Mostly Cloudy
9:16 AM 17.6 °F 6.4 °F 14.0 °F 86% 29.40 in 10.0 mi SSW 9.2 mph - N/A   Overcast
9:36 AM 15.8 °F 4.2 °F 12.2 °F 86% 29.40 in 10.0 mi South 9.2 mph - N/A   Overcast
9:56 AM 17.6 °F 6.4 °F 12.2 °F 79% 29.40 in 10.0 mi South 9.2 mph - N/A   Overcast
10:16 AM 15.8 °F 5.1 °F 12.2 °F 86% 29.41 in 10.0 mi South 8.1 mph - N/A   Overcast
10:36 AM 17.6 °F 7.3 °F 12.2 °F 79% 29.42 in 10.0 mi South 8.1 mph - N/A   Overcast
10:56 AM 15.8 °F - 12.2 °F 86% 29.42 in 10.0 mi Calm Calm - N/A   Overcast
11:16 AM 17.6 °F - 14.0 °F 86% 29.42 in 10.0 mi Calm Calm - N/A   Overcast
11:36 AM 17.6 °F 12.3 °F 12.2 °F 79% 29.43 in 10.0 mi SW 3.5 mph - N/A   Overcast
11:56 AM 15.8 °F - 12.2 °F 86% 29.43 in 10.0 mi Calm Calm - N/A   Scattered Clouds
12:16 PM 15.8 °F 6.1 °F 10.4 °F 79% 29.44 in 10.0 mi South 6.9 mph - N/A   Scattered Clouds
12:36 PM 15.8 °F - 12.2 °F 86% 29.44 in 10.0 mi Calm Calm - N/A   Mostly Cloudy
12:56 PM 14.0 °F - 10.4 °F 86% 29.45 in 10.0 mi Calm Calm - N/A   Scattered Clouds
1:16 PM 14.0 °F - 10.4 °F 86% 29.46 in 10.0 mi Calm Calm - N/A   Partly Cloudy
1:36 PM 15.8 °F 2.7 °F 10.4 °F 79% 29.46 in 9.0 mi South 11.5 mph - N/A   Partly Cloudy
1:56 PM 15.8 °F - 10.4 °F 79% 29.47 in 10.0 mi Calm Calm - N/A   Partly Cloudy
2:16 PM 15.8 °F 6.1 °F 12.2 °F 86% 29.47 in 10.0 mi SSW 6.9 mph - N/A   Mostly Cloudy
2:36 PM 15.8 °F 2.7 °F 12.2 °F 86% 29.48 in 10.0 mi South 11.5 mph - N/A   Overcast
2:56 PM 15.8 °F 4.2 °F 12.2 °F 86% 29.49 in 10.0 mi SSW 9.2 mph - N/A   Overcast
3:16 PM 15.8 °F 3.4 °F 12.2 °F 86% 29.50 in 10.0 mi South 10.4 mph - N/A   Overcast
3:36 PM 17.6 °F 4.3 °F 12.2 °F 79% 29.50 in 10.0 mi SSW 12.7 mph - N/A   Overcast
3:56 PM 15.8 °F 2.1 °F 12.2 °F 86% 29.50 in 10.0 mi South 12.7 mph - N/A   Overcast
4:16 PM 17.6 °F 2.7 °F 12.2 °F 79% 29.51 in 10.0 mi SSW 16.1 mph - N/A   Overcast
4:36 PM 17.6 °F 3.7 °F 12.2 °F 79% 29.51 in 10.0 mi South 13.8 mph - N/A   Overcast
4:56 PM 17.6 °F 3.2 °F 12.2 °F 79% 29.52 in 10.0 mi SSW 15.0 mph - N/A   Overcast
5:16 PM 17.6 °F 5.0 °F 12.2 °F 79% 29.52 in 10.0 mi South 11.5 mph 17.3 mph N/A   Overcast
5:36 PM 15.8 °F 2.1 °F 12.2 °F 86% 29.52 in 10.0 mi South 12.7 mph - N/A   Overcast
5:56 PM 17.6 °F 5.0 °F 12.2 °F 79% 29.52 in 10.0 mi SW 11.5 mph - N/A   Overcast
6:16 PM 17.6 °F 4.3 °F 12.2 °F 79% 29.52 in 10.0 mi SW 12.7 mph - N/A   Overcast
6:36 PM 17.6 °F 5.0 °F 12.2 °F 79% 29.52 in 10.0 mi SSW 11.5 mph - N/A   Overcast
6:56 PM 17.6 °F 4.3 °F 12.2 °F 79% 29.53 in 10.0 mi SSW 12.7 mph - N/A   Overcast
7:16 PM 15.8 °F 2.7 °F 12.2 °F 86% 29.53 in 10.0 mi SW 11.5 mph 17.3 mph N/A   Overcast
7:36 PM 15.8 °F 0.9 °F 12.2 °F 86% 29.54 in 10.0 mi South 15.0 mph - N/A   Overcast
7:56 PM 15.8 °F 2.7 °F 10.4 °F 79% 29.54 in 10.0 mi SSW 11.5 mph - N/A   Overcast
8:16 PM 15.8 °F 2.7 °F 10.4 °F 79% 29.55 in 10.0 mi SW 11.5 mph 16.1 mph N/A   Overcast
8:36 PM 15.8 °F 2.1 °F 12.2 °F 86% 29.56 in 10.0 mi SW 12.7 mph 16.1 mph N/A   Overcast
8:56 PM 15.8 °F 2.1 °F 10.4 °F 79% 29.56 in 10.0 mi South 12.7 mph - N/A   Overcast
9:16 PM 15.8 °F 2.1 °F 10.4 °F 79% 29.56 in 10.0 mi South 12.7 mph - N/A   Overcast
9:36 PM 15.8 °F 5.1 °F 10.4 °F 79% 29.57 in 10.0 mi SSW 8.1 mph - N/A   Overcast
9:56 PM 15.8 °F 3.4 °F 10.4 °F 79% 29.57 in 10.0 mi South 10.4 mph - N/A   Overcast
10:16 PM 15.8 °F 2.7 °F 10.4 °F 79% 29.58 in 10.0 mi South 11.5 mph - N/A   Overcast
10:36 PM 15.8 °F 2.7 °F 10.4 °F 79% 29.58 in 10.0 mi SW 11.5 mph - N/A   Overcast
10:56 PM 15.8 °F 2.7 °F 10.4 °F 79% 29.58 in 10.0 mi South 11.5 mph 17.3 mph N/A   Overcast
11:16 PM 15.8 °F 4.2 °F 10.4 °F 79% 29.58 in 10.0 mi SSW 9.2 mph - N/A   Overcast
11:36 PM 14.0 °F 2.0 °F 8.6 °F 79% 29.59 in 10.0 mi SSW 9.2 mph - N/A   Overcast
11:56 PM 14.0 °F 1.2 °F 8.6 °F 79% 29.59 in 10.0 mi South 10.4 mph - N/A   Overcast